Farmington, NM

2:32 AM MST on February 23, 2017 (GMT -0700)
Four Corners Regional

Weather History for KFMN - January, 2014

Change the Weather History Date:

Monday, January 27, 2014

  Actual Average Record
Temperature  
Mean Temperature 35 °F -  
Max Temperature 51 °F 43 °F 60 °F (1982)
Min Temperature 19 °F 20 °F 6 °F (2017)
Degree Days  
Heating Degree Days 30    
Moisture  
Dew Point 10 °F    
Average Humidity 36    
Maximum Humidity 63    
Minimum Humidity 10    
Precipitation  
Precipitation 0.00 in - - ()
Sea Level Pressure  
Sea Level Pressure 30.01 in    
Wind  
Wind Speed 9 mph (NNW)    
Max Wind Speed 23 mph    
Max Gust Speed 26 mph    
Visibility 10 miles    
Events      
Averages and records for this station are not official NWS values.
T = Trace of Precipitation, MM = Missing Value Source: NWS Daily Summary

Daily Weather History Graph

Daily Weather History Graph

Search for Another Location

Airport or City:

Trip Planner

Search our weather history database for the weather conditions in past years. The results will help you decide how hot, cold, wet, or windy it might be!

Date:

Astronomy

Jan. 27, 2014 Rise Set
Actual Time 7:18 AM MST 5:33 PM MST
Civil Twilight 6:51 AM MST 6:00 PM MST
Nautical Twilight 6:19 AM MST 6:31 PM MST
Astronomical Twilight 5:49 AM MST 7:02 PM MST
Moon 4:01 AM MST (1/27) 2:23 PM MST (1/27)
Length of Visible Light 11h 09m
Length of Day
10h 14m
Waning Crescent, 14% of the Moon is Illuminated
Jan 27
Waning Crescent
Jan 30
New
Feb 6
First Quarter
Feb 14
Full
Feb 22
Last Quarter

Hourly Weather History & Observations

Time (MST) Temp. Windchill Dew Point Humidity Pressure Visibility Wind Dir Wind Speed Gust Speed Precip Events Conditions
12:53 AM 26.1 °F 18.4 °F 10.0 °F 51% 30.03 in 10.0 mi ESE 6.9 mph - N/A   Clear
1:53 AM 26.1 °F 18.4 °F 10.0 °F 51% 30.02 in 10.0 mi East 6.9 mph - N/A   Clear
2:53 AM 24.1 °F 14.4 °F 10.0 °F 55% 30.03 in 10.0 mi East 9.2 mph - N/A   Clear
3:53 AM 23.0 °F 14.7 °F 10.0 °F 58% 30.04 in 10.0 mi East 6.9 mph - N/A   Clear
4:53 AM 21.9 °F 12.5 °F 10.0 °F 60% 30.04 in 10.0 mi East 8.1 mph - N/A   Clear
5:53 AM 23.0 °F 13.9 °F 10.0 °F 58% 30.06 in 10.0 mi East 8.1 mph - N/A   Clear
6:53 AM 19.9 °F 12.1 °F 9.0 °F 62% 30.10 in 10.0 mi NE 5.8 mph - N/A   Clear
7:53 AM 21.9 °F 14.5 °F 10.9 °F 63% 30.12 in 10.0 mi ENE 5.8 mph - N/A   Clear
8:53 AM 28.0 °F 21.7 °F 12.9 °F 53% 30.11 in 10.0 mi East 5.8 mph - N/A   Clear
9:53 AM 33.1 °F 27.7 °F 14.0 °F 46% 30.09 in 10.0 mi ESE 5.8 mph - N/A   Clear
10:53 AM 37.9 °F 34.4 °F 12.9 °F 36% 30.07 in 10.0 mi East 4.6 mph - N/A   Clear
11:53 AM 43.0 °F - 10.9 °F 27% 30.02 in 10.0 mi Calm Calm - N/A   Clear
12:53 PM 48.9 °F - 9.0 °F 20% 29.97 in 10.0 mi West 10.4 mph - N/A   Clear
1:53 PM 50.0 °F - 10.0 °F 20% 29.94 in 10.0 mi West 19.6 mph 26.5 mph N/A   Clear
2:53 PM 51.1 °F - 8.1 °F 18% 29.91 in 10.0 mi West 19.6 mph - N/A   Clear
3:53 PM 50.0 °F - 9.0 °F 19% 29.92 in 10.0 mi West 23.0 mph - N/A   Clear
4:53 PM 50.0 °F - 10.0 °F 20% 29.94 in 10.0 mi WNW 18.4 mph - N/A   Clear
5:53 PM 45.0 °F 37.6 °F 9.0 °F 23% 29.95 in 10.0 mi WNW 17.3 mph 21.9 mph N/A   Clear
6:53 PM 44.1 °F 38.6 °F 9.0 °F 24% 29.98 in 10.0 mi WNW 10.4 mph - N/A   Clear
7:53 PM 35.1 °F 28.6 °F 9.0 °F 34% 30.00 in 10.0 mi West 8.1 mph - N/A   Clear
8:53 PM 34.0 °F 29.8 °F 9.0 °F 35% 30.00 in 10.0 mi West 4.6 mph - N/A   Clear
9:53 PM 33.1 °F 28.7 °F 9.0 °F 37% 30.00 in 10.0 mi NW 4.6 mph - N/A   Clear
10:53 PM 34.0 °F 26.6 °F 10.0 °F 37% 29.99 in 10.0 mi NW 9.2 mph - N/A   Clear
11:53 PM 36.0 °F 28.5 °F 10.0 °F 34% 29.96 in 10.0 mi WNW 10.4 mph - N/A   Clear